{"data":{"norad_id":65105,"epoch":"2026-05-25T01:43:45.476832Z","epoch_age_seconds":79293,"freshness":"FRESH","line1":"1 65105U 25167AD  26145.07205413  .00001870  00000+0  52379-4 0  9993","line2":"2 65105  53.1603  29.0749 0000424  67.2336 292.8714 15.42169541 45218","mean_motion":15.42169541,"eccentricity":4.24e-5,"inclination_deg":53.1603,"raan_deg":29.0749,"arg_perigee_deg":67.2336,"mean_anomaly_deg":292.8714,"bstar":5.2379e-5,"rev_number":4521,"period_min":93.374947547353,"perigee_km":439.41845679528,"apogee_km":439.99661001171,"semimajor_km":6817.8445334035,"source":"CELESTRAK","updated_at":"2026-05-25T13:38:20.688232Z"}}